ARG1987 SAZN-SABE

Flight info

Callsign ARG1987
Flight time N/A
Altitude 35000
Route NIDBA3C NIDBA DCT ISMIL UT655 ASADA ASADA9R
Aircraft B738/M-SDE2E3FGHIRWXY/LB1

Departure

Time 2026-04-26 22:11
Airport Presidente Perón International Airport (SAZN)

Arrival

Time N/A
Airport Aeroparque Jorge Newbery (SABE)
Time Latitude Longitude Altitude Speed Heading
2026-04-26 21:47 -38.95149 -68.14113 903 ft 0 kts 180°
2026-04-26 22:02 -38.95148 -68.14113 903 ft 1 kts 179°
2026-04-26 22:02 -38.95135 -68.14113 905 ft 3 kts 162°
2026-04-26 22:02 -38.95112 -68.14127 903 ft 4 kts 137°
2026-04-26 22:02 -38.95099 -68.14148 903 ft 1 kts 121°
2026-04-26 22:03 -38.95097 -68.14153 903 ft 0 kts 121°
2026-04-26 22:07 -38.95097 -68.14152 903 ft 0 kts 121°
2026-04-26 22:07 -38.95096 -68.14143 903 ft 2 kts 80°
2026-04-26 22:07 -38.95093 -68.14103 905 ft 6 kts 94°
2026-04-26 22:07 -38.95095 -68.14021 903 ft 11 kts 86°
2026-04-26 22:08 -38.95074 -68.13980 904 ft 4 kts 29°
2026-04-26 22:08 -38.95044 -68.13985 903 ft 5 kts 333°
2026-04-26 22:08 -38.95025 -68.14009 903 ft 0 kts 314°
2026-04-26 22:09 -38.95021 -68.14015 906 ft 3 kts 314°
2026-04-26 22:09 -38.94995 -68.14049 906 ft 8 kts 314°
2026-04-26 22:10 -38.94945 -68.14113 905 ft 12 kts 316°
2026-04-26 22:10 -38.94903 -68.14188 904 ft 9 kts 281°
2026-04-26 22:10 -38.94902 -68.14206 904 ft 0 kts 270°
2026-04-26 22:10 -38.94903 -68.14331 904 ft 50 kts 270°
2026-04-26 22:11 -38.94900 -68.15157 902 ft 133 kts 270°
2026-04-26 22:11 -38.94892 -68.16572 1159 ft 175 kts 270°
2026-04-26 22:11 -38.94889 -68.18162 2109 ft 174 kts 270°
2026-04-26 22:11 -38.94887 -68.19690 3218 ft 178 kts 270°
2026-04-26 22:12 -38.94883 -68.21442 3787 ft 214 kts 270°
2026-04-26 22:12 -38.94876 -68.23447 4442 ft 230 kts 270°
2026-04-26 22:12 -38.94867 -68.25526 5347 ft 235 kts 270°
2026-04-26 22:12 -38.94858 -68.27644 6361 ft 240 kts 270°
2026-04-26 22:13 -38.94775 -68.29803 7396 ft 250 kts 282°
2026-04-26 22:13 -38.93933 -68.31864 8048 ft 274 kts 314°
2026-04-26 22:13 -38.92294 -68.33153 9074 ft 283 kts 343°
2026-04-26 22:13 -38.90337 -68.33319 10197 ft 287 kts 10°
2026-04-26 22:14 -38.88504 -68.32306 11276 ft 293 kts 38°
2026-04-26 22:14 -38.87226 -68.30273 12311 ft 298 kts 65°
2026-04-26 22:14 -38.86573 -68.27736 13346 ft 303 kts 76°
2026-04-26 22:14 -38.86108 -68.25068 14331 ft 308 kts 78°
2026-04-26 22:15 -38.85647 -68.22358 15301 ft 313 kts 77°
2026-04-26 22:15 -38.85142 -68.19640 16255 ft 318 kts 76°
2026-04-26 22:15 -38.84586 -68.16849 17196 ft 322 kts 75°
2026-04-26 22:15 -38.84029 -68.14130 18083 ft 327 kts 75°
2026-04-26 22:16 -38.83430 -68.11269 18855 ft 337 kts 74°
2026-04-26 22:16 -38.82781 -68.08312 19418 ft 350 kts 74°
2026-04-26 22:16 -38.82103 -68.05276 20171 ft 357 kts 74°
2026-04-26 22:16 -38.81413 -68.02202 21010 ft 360 kts 74°
2026-04-26 22:17 -38.80718 -67.99096 21820 ft 364 kts 74°
2026-04-26 22:17 -38.80025 -67.95999 22568 ft 369 kts 74°
2026-04-26 22:17 -38.79315 -67.92820 23287 ft 373 kts 74°
2026-04-26 22:17 -38.78595 -67.89601 23994 ft 378 kts 74°
2026-04-26 22:18 -38.77869 -67.86350 24678 ft 382 kts 74°
2026-04-26 22:18 -38.77132 -67.83061 25336 ft 386 kts 74°
2026-04-26 22:18 -38.76388 -67.79741 25980 ft 390 kts 74°
2026-04-26 22:18 -38.75635 -67.76383 26601 ft 394 kts 74°
2026-04-26 22:19 -38.74873 -67.72995 27186 ft 398 kts 74°
2026-04-26 22:19 -38.74103 -67.69574 27760 ft 401 kts 74°
2026-04-26 22:19 -38.73326 -67.66123 28313 ft 405 kts 74°
2026-04-26 22:19 -38.72541 -67.62647 28847 ft 409 kts 73°
2026-04-26 22:20 -38.71748 -67.59139 29367 ft 412 kts 73°
2026-04-26 22:20 -38.71165 -67.56822 29696 ft 414 kts 68°
2026-04-26 22:20 -38.69500 -67.52348 30345 ft 418 kts 62°
2026-04-26 22:20 -38.68116 -67.49059 30812 ft 421 kts 61°
2026-04-26 22:21 -38.66700 -67.45766 31252 ft 424 kts 61°
2026-04-26 22:21 -38.65279 -67.42443 31672 ft 427 kts 61°
2026-04-26 22:21 -38.63863 -67.39086 32084 ft 430 kts 62°
2026-04-26 22:21 -38.62452 -67.35698 32476 ft 433 kts 62°
2026-04-26 22:22 -38.61038 -67.32278 32851 ft 436 kts 62°
2026-04-26 22:22 -38.59621 -67.28835 33227 ft 439 kts 62°
2026-04-26 22:22 -38.58198 -67.25372 33590 ft 441 kts 62°
2026-04-26 22:22 -38.56768 -67.21893 33953 ft 443 kts 62°
2026-04-26 22:23 -38.55334 -67.18409 34386 ft 443 kts 62°
2026-04-26 22:23 -38.53901 -67.14935 34863 ft 441 kts 62°
2026-04-26 22:23 -38.52483 -67.11500 34982 ft 443 kts 62°
2026-04-26 22:23 -38.51050 -67.08034 35003 ft 440 kts 62°
2026-04-26 22:24 -38.48196 -67.01141 35012 ft 439 kts 62°
2026-04-26 22:24 -38.45335 -66.94249 35004 ft 440 kts 62°
2026-04-26 22:25 -38.42465 -66.87349 35000 ft 440 kts 62°
2026-04-26 22:25 -38.39590 -66.80450 34999 ft 440 kts 62°
2026-04-26 22:26 -38.36712 -66.73559 34997 ft 441 kts 62°
2026-04-26 22:26 -38.33828 -66.66671 34999 ft 440 kts 62°
2026-04-26 22:27 -38.31426 -66.60956 35005 ft 440 kts 62°
2026-04-26 22:27 -38.28528 -66.54083 35005 ft 440 kts 62°
2026-04-26 22:28 -38.25630 -66.47223 35003 ft 440 kts 62°
2026-04-26 22:28 -38.22730 -66.40369 35004 ft 440 kts 62°
2026-04-26 22:29 -38.19849 -66.33572 35001 ft 440 kts 62°
2026-04-26 22:29 -38.16922 -66.26684 35002 ft 439 kts 61°
2026-04-26 22:30 -38.14015 -66.19857 35000 ft 439 kts 61°
2026-04-26 22:30 -38.11106 -66.13039 35002 ft 439 kts 61°
2026-04-26 22:31 -38.08195 -66.06231 35001 ft 439 kts 61°
2026-04-26 22:31 -38.05278 -65.99424 34998 ft 439 kts 61°
2026-04-26 22:32 -38.02373 -65.92661 35006 ft 439 kts 61°
2026-04-26 22:32 -37.99450 -65.85868 35004 ft 439 kts 61°
2026-04-26 22:33 -37.95057 -65.75688 35000 ft 439 kts 61°
2026-04-26 22:34 -37.92125 -65.68911 35002 ft 439 kts 61°
2026-04-26 22:34 -37.89188 -65.62137 34999 ft 439 kts 61°
2026-04-26 22:35 -37.86250 -65.55375 35000 ft 439 kts 61°
2026-04-26 22:35 -37.83333 -65.48675 34978 ft 421 kts 61°
2026-04-26 22:35 -37.81945 -65.45492 34981 ft 405 kts 61°
2026-04-26 22:36 -37.80595 -65.42399 34998 ft 400 kts 61°
2026-04-26 22:36 -37.77898 -65.36230 35011 ft 402 kts 61°
2026-04-26 22:37 -37.75183 -65.30033 35010 ft 404 kts 61°
2026-04-26 22:37 -37.72472 -65.23855 35007 ft 404 kts 61°
2026-04-26 22:38 -37.69741 -65.17643 35003 ft 404 kts 60°
2026-04-26 22:38 -37.67006 -65.11435 34999 ft 403 kts 60°
2026-04-26 22:39 -37.64280 -65.05258 34998 ft 403 kts 60°
2026-04-26 22:39 -37.61551 -64.99088 35003 ft 402 kts 60°
2026-04-26 22:40 -37.58827 -64.92938 34996 ft 401 kts 60°
2026-04-26 22:40 -37.56101 -64.86798 35004 ft 401 kts 60°
2026-04-26 22:41 -37.53373 -64.80664 35005 ft 401 kts 60°
2026-04-26 22:41 -37.50640 -64.74531 35000 ft 401 kts 60°
2026-04-26 22:42 -37.47908 -64.68409 35004 ft 401 kts 60°
2026-04-26 22:42 -37.45170 -64.62288 35005 ft 401 kts 60°